Location: Monrovia
(34.7865°N, 86.7139°W)
Time: 00:03:18
(UTC+00:00)

Resurs 1-3 - Pass Details

Date: 14 July 2020
Orbit: 630 x 632 km, 97.9° (Epoch: 12 August)

Event Time Altitude Azimuth Distance (km) Brightness Sun altitude
Exits shadow 01:45:15 - 148° (SSE) 2,119 5.7 -8.6°
Reaches altitude 10° 01:45:32 10° 147° (SSE) 2,005 5.6 -8.6°
Maximum altitude 01:49:43 46° 74° (ENE) 850 4.0 -9.4°
Drops below altitude 10° 01:53:55 10° 1° (N) 2,017 6.7 -10.1°
Sets 01:56:10 0° 356° (N) 2,929 7.7 -10.4°
